Weather History for KCLL - November, 2012

Change the Weather History Date:

Sunday, November 25, 2012

  Actual Average Record
Temperature  
Mean Temperature 60 °F 57 °F  
Max Temperature 76 °F 68 °F 86 °F (1981)
Min Temperature 44 °F 47 °F 24 °F (1938)
Degree Days  
Heating Degree Days 5 9  
Month to date heating degree days 94 139  
Since 1 July heating degree days 150 176  
Cooling Degree Days 0 1  
Month to date cooling degree days 63 55  
Year to date cooling degree days 3548 3067  
Growing Degree Days 10 (Base 50)    
Moisture  
Dew Point 45 °F    
Average Humidity 60    
Maximum Humidity 81    
Minimum Humidity 38    
Precipitation  
Precipitation 0.00 in 0.10 in 1.37 in (1986)
Month to date precipitation 0.40 2.69  
Year to date precipitation 37.32 36.30  
Sea Level Pressure  
Sea Level Pressure 30.03 in    
Wind  
Wind Speed 10 mph (South)    
Max Wind Speed 20 mph    
Max Gust Speed 26 mph    
Visibility 10 miles    
Events      
T = Trace of Precipitation, MM = Missing Value Source: NWS Daily Summary

Daily Weather History Graph

Daily Weather History Graph

Search for Another Location

Airport or City:

Trip Planner

Search our weather history database for the weather conditions in past years. The results will help you decide how hot, cold, wet, or windy it might be!

Date:

Astronomy

Nov. 25, 2012 Rise Set
Actual Time 7:00 AM CST 5:24 PM CST
Civil Twilight 6:34 AM CST 5:50 PM CST
Nautical Twilight 6:04 AM CST 6:20 PM CST
Astronomical Twilight 5:36 AM CST 6:49 PM CST
Moon 3:35 PM CST (11/25) 4:23 AM CST (11/25)
Length of Visible Light 11h 16m
Length of Day
10h 24m
Waxing Gibbous, 93% of the Moon is Illuminated
Nov 25
Waxing Gibbous
Nov 28
Full
Dec 6
Last Quarter
Dec 13
New
Dec 19
First Quarter

Hourly Weather History & Observations

Time (CST) Temp. Windchill Dew Point Humidity Pressure Visibility Wind Dir Wind Speed Gust Speed Precip Events Conditions
12:53 AM 46.9 °F - 30.0 °F 52% 30.14 in 10.0 mi South 4.6 mph - N/A   Clear
1:53 AM 46.0 °F 43.1 °F 30.9 °F 56% 30.13 in 10.0 mi SSE 5.8 mph - N/A   Clear
2:53 AM 45.0 °F 41.8 °F 33.1 °F 63% 30.11 in 10.0 mi South 5.8 mph - N/A   Clear
3:53 AM 45.0 °F 42.6 °F 33.1 °F 63% 30.10 in 10.0 mi South 4.6 mph - N/A   Clear
4:53 AM 44.1 °F 41.5 °F 33.1 °F 65% 30.09 in 10.0 mi SSE 4.6 mph - N/A   Clear
5:53 AM 45.0 °F 41.8 °F 34.0 °F 65% 30.09 in 10.0 mi South 5.8 mph - N/A   Clear
6:53 AM 44.1 °F 40.8 °F 35.1 °F 71% 30.10 in 10.0 mi South 5.8 mph - N/A   Clear
7:53 AM 46.9 °F - 37.9 °F 71% 30.11 in 10.0 mi South 4.6 mph - N/A   Clear
8:53 AM 54.0 °F - 39.9 °F 59% 30.11 in 10.0 mi South 9.2 mph - N/A   Clear
9:53 AM 60.1 °F - 42.1 °F 51% 30.12 in 10.0 mi South 10.4 mph - N/A   Clear
10:53 AM 66.0 °F - 42.1 °F 42% 30.10 in 10.0 mi South 12.7 mph 19.6 mph N/A   Clear
11:53 AM 70.0 °F - 44.1 °F 39% 30.06 in 10.0 mi South 15.0 mph 19.6 mph N/A   Clear
12:53 PM 73.0 °F - 46.0 °F 38% 30.01 in 10.0 mi South 11.5 mph - N/A   Clear
1:53 PM 73.9 °F - 48.9 °F 41% 29.98 in 10.0 mi South 17.3 mph 21.9 mph N/A   Clear
2:53 PM 75.9 °F - 51.1 °F 42% 29.96 in 10.0 mi South 18.4 mph 23.0 mph N/A   Clear
3:53 PM 75.0 °F - 52.0 °F 44% 29.95 in 10.0 mi South 12.7 mph 20.7 mph N/A   Clear
4:53 PM 73.9 °F - 53.1 °F 48% 29.94 in 10.0 mi South 12.7 mph - N/A   Clear
5:53 PM 72.0 °F - 54.0 °F 53% 29.94 in 10.0 mi South 9.2 mph - N/A   Overcast
6:53 PM 69.1 °F - 55.0 °F 61% 29.94 in 10.0 mi South 8.1 mph - N/A   Scattered Clouds
7:53 PM 69.1 °F - 57.0 °F 65% 29.95 in 10.0 mi South 10.4 mph - N/A   Clear
8:53 PM 68.0 °F - 57.9 °F 70% 29.96 in 10.0 mi South 9.2 mph - N/A   Clear
9:53 PM 66.9 °F - 59.0 °F 76% 29.96 in 10.0 mi South 15.0 mph - N/A   Mostly Cloudy
10:53 PM 66.9 °F - 60.1 °F 79% 29.96 in 10.0 mi South 13.8 mph - N/A   Mostly Cloudy
11:53 PM 66.0 °F - 61.0 °F 84% 29.96 in 10.0 mi South 9.2 mph - N/A   Mostly Cloudy